Location: Unspecified
(0.0000°N, 0.0000°E)
Time: 22:02:51
(UTC+00:00)

GALILEO 8 (264) - Pass Details

Date: 10 December 2022
Orbit: 23209 x 23234 km, 56.9° (Epoch: 05 February)

Event Time Altitude Azimuth Distance (km) Brightness Sun altitude
Rises 15:51:14 0° 219° (SW) 28,899 ? 27.8°
Reaches altitude 10° 16:47:03 10° 205° (SSW) 27,807 ? 15.1°
Maximum altitude 20:18:45 80° 267° (W) 23,303 ? -33.2°
Drops below altitude 10° 04:26:23 10° 115° (ESE) 27,810 ? -19.9°
Sets 05:35:17 0° 136° (SE) 28,899 ? -4.1°
